GHGSAT-C1 (46278 NORAD) Tracking and Keplerian Element Data

This shows tracking and keplerian element data for the satellite.

Feedback or suggestion? Click here.




ElementValue
Catalog46278
NameGHGSAT-C1
Epoch Orbit330
Epoch Day268.92144119
Epoch Year2020
RAAN341.6573
Inclination97.4631
Eccentricity5.58E-05
Argument of Perigee274.591
Mean Anonmoly85.5259
Mean Motion15.16324462
Decay Rate4.07E-06
L11 46278U 20061G 20268.92144119 .00000407 00000-0 24397-4 0 9995
L22 46278 97.4631 341.6573 0000558 274.5910 85.5259 15.16324462 3308

Live tracking and technical data element details for GHGSAT-C1 (NORAD 46278). GHGSAT-C1 can be tracked NOW for your location showing map with azimuth and elevation plus other details from your city location.

Track the satellite on the map from your city or location and see movement details for azimuth, elevation, latitude, longitude, range, height, and movement on the map or in text.







IsCatalogInMostPopularTable: catalog: 46278, numindb: 3
Update: records affected: 1



GetName: 46278 GHGSAT-C1

Hit Count: updated at: Sat, 26 Sep 2020 15:57:45 GMT